Change the Weather History Date:

Wednesday, April 24, 2013

  Actual Average (KHSV) Record (KHSV)
Temperature  
Mean Temperature 56 °F 64 °F  
Max Temperature 68 °F 76 °F 91 °F (1960)
Min Temperature 44 °F 53 °F 32 °F (1910)
Degree Days  
Heating Degree Days 9 3  
Month to date heating degree days 138  
Since 1 July heating degree days 2958  
Cooling Degree Days 0 3  
Month to date cooling degree days 40  
Year to date cooling degree days 54  
Growing Degree Days 6 (Base 50)    
Moisture  
Dew Point 47 °F    
Average Humidity 69    
Maximum Humidity 87    
Minimum Humidity 46    
Precipitation  
Precipitation 0.16 in 0.15 in 1.93 in (1937)
Month to date precipitation 3.42  
Year to date precipitation 18.36  
Snow  
Snow 0.00 in - - ()
Month to date snowfall  
Since 1 July snowfall  
Snow Depth -    
Sea Level Pressure  
Sea Level Pressure 30.10 in    
Wind  
Wind Speed 10 mph (WSW)    
Max Wind Speed 22 mph    
Max Gust Speed 29 mph    
Visibility 9 miles    
Events Rain , Thunderstorm    
T = Trace of Precipitation, MM = Missing Value Source: NWS Daily Summary

Daily Weather History Graph

Daily Weather History Graph

Search for Another Location

Airport or City:

Trip Planner

Search our weather history database for the weather conditions in past years. The results will help you decide how hot, cold, wet, or windy it might be!

Date:

Astronomy

Apr. 24, 2013 Rise Set
Actual Time 6:03 AM CDT 7:26 PM CDT
Civil Twilight 5:36 AM CDT 7:52 PM CDT
Nautical Twilight 5:04 AM CDT 8:24 PM CDT
Astronomical Twilight 4:31 AM CDT 8:57 PM CDT
Moon 6:30 PM CDT (4/24) 5:03 AM CDT (4/24)
Length of Visible Light 14h 16m
Length of Day
13h 22m
Waxing Gibbous, 98% of the Moon is Illuminated
Apr 24
Waxing Gibbous
Apr 25
Full
May 2
Last Quarter
May 9
New
May 17
First Quarter

Hourly Weather History & Observations

Time (CDT) Temp. Windchill Dew Point Humidity Pressure Visibility Wind Dir Wind Speed Gust Speed Precip Events Conditions
12:15 AM 66.2 °F - 46.4 °F 49% 30.05 in 10.0 mi South 8.1 mph - N/A   Overcast
12:35 AM 66.2 °F - 46.4 °F 49% 30.04 in 10.0 mi SSE 8.1 mph - N/A   Overcast
12:55 AM 66.2 °F - 46.4 °F 49% 30.03 in 10.0 mi SSE 9.2 mph 16.1 mph N/A   Mostly Cloudy
1:15 AM 66.2 °F - 46.4 °F 49% 30.02 in 10.0 mi South 10.4 mph - N/A   Mostly Cloudy
1:35 AM 66.2 °F - 46.4 °F 49% 30.01 in 10.0 mi South 11.5 mph - N/A   Overcast
1:55 AM 68.0 °F - 46.4 °F 46% 30.01 in 10.0 mi South 9.2 mph 16.1 mph N/A   Mostly Cloudy
2:15 AM 66.2 °F - 48.2 °F 52% 30.01 in 10.0 mi South 10.4 mph - N/A   Scattered Clouds
2:35 AM 66.2 °F - 48.2 °F 52% 30.01 in 10.0 mi South 12.7 mph 17.3 mph N/A   Scattered Clouds
2:55 AM 66.2 °F - 48.2 °F 52% 30.00 in 10.0 mi South 11.5 mph - N/A   Clear
3:15 AM 64.4 °F - 48.2 °F 56% 30.01 in 10.0 mi South 11.5 mph - N/A   Clear
3:35 AM 64.4 °F - 48.2 °F 56% 29.99 in 10.0 mi South 10.4 mph 17.3 mph N/A   Clear
3:55 AM 64.4 °F - 48.2 °F 56% 29.99 in 10.0 mi South 12.7 mph - N/A   Clear
4:15 AM 64.4 °F - 50.0 °F 59% 30.01 in 10.0 mi South 10.4 mph - N/A   Scattered Clouds
4:35 AM 64.4 °F - 50.0 °F 59% 30.01 in 10.0 mi South 6.9 mph - N/A   Overcast
5:15 AM 64.4 °F - 50.0 °F 59% 30.00 in 10.0 mi South 11.5 mph 18.4 mph N/A   Scattered Clouds
5:35 AM 62.6 °F - 50.0 °F 63% 29.99 in 10.0 mi South 9.2 mph 21.9 mph N/A   Mostly Cloudy
5:55 AM 62.6 °F - 51.8 °F 68% 29.99 in 10.0 mi South 10.4 mph 20.7 mph N/A   Scattered Clouds
6:15 AM 62.6 °F - 51.8 °F 68% 29.99 in 10.0 mi South 11.5 mph - N/A   Mostly Cloudy
6:35 AM 62.6 °F - 51.8 °F 68% 29.99 in 10.0 mi South 11.5 mph - N/A   Scattered Clouds
6:55 AM 62.6 °F - 51.8 °F 68% 29.99 in 10.0 mi South 9.2 mph - N/A   Mostly Cloudy
7:15 AM 62.6 °F - 51.8 °F 68% 29.99 in 10.0 mi South 16.1 mph 21.9 mph N/A   Mostly Cloudy
7:35 AM 64.4 °F - 51.8 °F 64% 30.00 in 10.0 mi South 18.4 mph 24.2 mph N/A   Mostly Cloudy
7:55 AM 64.4 °F - 51.8 °F 64% 30.00 in 10.0 mi South 15.0 mph 24.2 mph N/A   Overcast
8:15 AM 64.4 °F - 51.8 °F 64% 29.99 in 10.0 mi South 17.3 mph 26.5 mph N/A   Scattered Clouds
8:35 AM 64.4 °F - 51.8 °F 64% 29.98 in 10.0 mi South 21.9 mph 28.8 mph N/A   Clear
8:55 AM 64.4 °F - 51.8 °F 64% 30.03 in 10.0 mi SSW 13.8 mph 23.0 mph N/A   Scattered Clouds
9:15 AM 64.4 °F - 51.8 °F 64% 30.04 in 10.0 mi SW 15.0 mph 21.9 mph N/A   Overcast
9:35 AM 62.6 °F - 53.6 °F 72% 30.04 in 10.0 mi SSW 11.5 mph - N/A Rain , Thunderstorm Light Thunderstorms and Rain
9:55 AM 62.6 °F - 53.6 °F 72% 30.04 in 10.0 mi SSW 10.4 mph 17.3 mph N/A Rain Light Rain
10:15 AM 62.6 °F - 53.6 °F 72% 30.05 in 10.0 mi SSW 9.2 mph - N/A Rain Rain
10:35 AM 60.8 °F - 55.4 °F 82% 30.08 in 4.0 mi WSW 10.4 mph - 0.01 in Rain Rain
10:55 AM 60.8 °F - 55.4 °F 82% 30.10 in 5.0 mi West 5.8 mph - 0.02 in Rain Rain
11:15 AM 60.8 °F - 55.4 °F 82% 30.09 in 2.5 mi SW 4.6 mph - 0.08 in Rain Heavy Rain
11:35 AM 60.8 °F - 55.4 °F 82% 30.09 in 7.0 mi SW 4.6 mph - 0.11 in Rain Rain
11:55 AM 60.8 °F - 55.4 °F 82% 30.08 in 10.0 mi SSW 5.8 mph - 0.13 in Rain Rain
12:15 PM 60.8 °F - 55.4 °F 82% 30.08 in 10.0 mi SW 10.4 mph - N/A Rain Rain
12:35 PM 60.8 °F - 55.4 °F 82% 30.09 in 10.0 mi WSW 9.2 mph - N/A   Drizzle
12:55 PM 53.6 °F - 48.2 °F 82% 30.11 in 10.0 mi WNW 16.1 mph 21.9 mph N/A   Light Drizzle
1:15 PM 51.8 °F - 46.4 °F 82% 30.12 in 3.0 mi NW 16.1 mph 20.7 mph N/A Rain Light Rain
1:35 PM 50.0 °F - 44.6 °F 82% 30.12 in 10.0 mi NW 8.1 mph 20.7 mph N/A   Drizzle
1:55 PM 50.0 °F - 44.6 °F 82% 30.13 in 7.0 mi NW 6.9 mph - N/A Rain Light Rain
2:15 PM 50.0 °F - 44.6 °F 82% 30.13 in 10.0 mi NW 6.9 mph - N/A   Overcast
2:35 PM 50.0 °F - 46.4 °F 87% 30.13 in 10.0 mi NW 3.5 mph - N/A   Overcast
2:55 PM 50.0 °F - 46.4 °F 87% 30.14 in 10.0 mi NNW 8.1 mph - N/A   Light Drizzle
3:15 PM 50.0 °F - 44.6 °F 82% 30.14 in 7.0 mi NNW 8.1 mph - N/A   Drizzle
3:35 PM 50.0 °F - 44.6 °F 82% 30.15 in 2.5 mi NW 6.9 mph - N/A Rain Rain
3:55 PM 50.0 °F - 46.4 °F 87% 30.15 in 5.0 mi NNW 5.8 mph - 0.01 in   Drizzle
4:15 PM 50.0 °F - 44.6 °F 82% 30.15 in 10.0 mi NNW 6.9 mph - N/A   Overcast
4:35 PM 51.8 °F - 44.6 °F 76% 30.16 in 10.0 mi North 9.2 mph - N/A   Overcast
4:55 PM 51.8 °F - 44.6 °F 76% 30.17 in 10.0 mi NNW 10.4 mph 16.1 mph N/A   Overcast
5:15 PM 51.8 °F - 44.6 °F 76% 30.17 in 10.0 mi North 11.5 mph - N/A   Overcast
5:35 PM 50.0 °F - 42.8 °F 76% 30.17 in 10.0 mi North 11.5 mph - N/A   Overcast
5:55 PM 50.0 °F - 42.8 °F 76% 30.18 in 10.0 mi NNW 12.7 mph - N/A   Overcast
6:15 PM 50.0 °F - 41.0 °F 71% 30.19 in 10.0 mi NNW 8.1 mph - N/A   Overcast
6:35 PM 50.0 °F - 41.0 °F 71% 30.19 in 10.0 mi North 9.2 mph - N/A   Overcast
6:55 PM 50.0 °F - 41.0 °F 71% 30.19 in 10.0 mi North 4.6 mph - N/A   Overcast
7:15 PM 50.0 °F - 41.0 °F 71% 30.20 in 10.0 mi North 4.6 mph - N/A   Overcast
7:35 PM 50.0 °F - 41.0 °F 71% 30.20 in 10.0 mi North 10.4 mph - N/A   Overcast
7:55 PM 50.0 °F - 41.0 °F 71% 30.21 in 10.0 mi North 9.2 mph - N/A   Overcast
8:15 PM 48.2 °F - 41.0 °F 76% 30.21 in 10.0 mi North 10.4 mph - N/A   Overcast
8:35 PM 48.2 °F - 41.0 °F 76% 30.22 in 10.0 mi North 9.2 mph - N/A   Overcast
8:55 PM 46.4 °F 42.4 °F 39.2 °F 76% 30.23 in 10.0 mi North 8.1 mph - N/A   Overcast
10:15 PM 46.4 °F 41.5 °F 35.6 °F 66% 30.24 in 10.0 mi North 10.4 mph - N/A   Overcast
10:35 PM 46.4 °F 43.5 °F 35.6 °F 66% 30.25 in 10.0 mi North 5.8 mph - N/A   Overcast
10:55 PM 46.4 °F 42.9 °F 35.6 °F 66% 30.26 in 10.0 mi North 6.9 mph - N/A   Overcast
11:15 PM 46.4 °F 41.9 °F 35.6 °F 66% 30.27 in 10.0 mi North 9.2 mph - N/A   Overcast
11:35 PM 44.6 °F 39.2 °F 33.8 °F 66% 30.28 in 10.0 mi North 10.4 mph 17.3 mph N/A   Overcast
11:55 PM 46.4 °F 41.9 °F 33.8 °F 62% 30.27 in 10.0 mi North 9.2 mph - N/A   Overcast